Weather History for Fremont, NE

Change the Weather History Date:

Sunday, November 2, 2014

  Actual Average Record
Temperature  
Mean Temperature 53 °F -  
Max Temperature 64 °F 53 °F 78 °F (2005)
Min Temperature 42 °F 35 °F 8 °F (1991)
Degree Days  
Heating Degree Days 12    
Growing Degree Days 3 (Base 50)    
Moisture  
Dew Point 32 °F    
Average Humidity 47    
Maximum Humidity 67    
Minimum Humidity 37    
Precipitation  
Precipitation 0.00 in - - ()
Sea Level Pressure  
Sea Level Pressure 29.93 in    
Wind  
Wind Speed 18 mph (SSE)    
Max Wind Speed 23 mph    
Max Gust Speed 32 mph    
Visibility 10 miles    
Events      
Averages and records for this station are not official NWS values.
T = Trace of Precipitation, MM = Missing Value Source: NWS Daily Summary

Daily Weather History Graph

Daily Weather History Graph

Search for Another Location

Airport:

Trip Planner

Search our weather history database for the weather conditions in past years. The results will help you decide how hot, cold, wet, or windy it might be!

Date:

Astronomy

Nov. 02, 2014 Rise Set
Actual Time 6:58 AM CST 5:19 PM CST
Civil Twilight 6:30 AM CST 5:48 PM CST
Nautical Twilight 5:57 AM CST 6:21 PM CST
Astronomical Twilight 5:25 AM CST 6:53 PM CST
Moon 2:55 PM CST (11/2) 1:59 AM CST (11/2)
Length of Visible Light 11h 18m
Length of Day
10h 20m
Waxing Gibbous, 79% of the Moon is Illuminated
Nov 2
Waxing Gibbous
Nov 6
Full
Nov 14
Last Quarter
Nov 22
New
Nov 29
First Quarter

Hourly Weather History & Observations

Time (CST) Temp. Windchill Dew Point Humidity Pressure Visibility Wind Dir Wind Speed Gust Speed Precip Events Conditions
12:15 AM 42.8 °F 34.5 °F 24.1 °F 48% 30.09 in 10.0 mi SSE 18.4 mph 23.0 mph N/A   Clear
12:35 AM 42.8 °F 34.3 °F 24.3 °F 48% 30.08 in 10.0 mi SE 19.6 mph 24.2 mph N/A   Clear
12:55 AM 42.8 °F 34.5 °F 24.6 °F 49% 30.07 in 10.0 mi SE 18.4 mph 25.3 mph N/A   Clear
1:15 AM 42.8 °F 34.5 °F 24.4 °F 48% 30.06 in 10.0 mi SE 18.4 mph 25.3 mph N/A   Clear
1:35 AM 43.3 °F 34.7 °F 24.4 °F 47% 30.06 in 10.0 mi SE 20.7 mph 27.6 mph N/A   Clear
1:55 AM 43.3 °F 34.7 °F 24.6 °F 48% 30.04 in 10.0 mi SSE 20.7 mph 27.6 mph N/A   Clear
1:15 AM 43.7 °F 35.0 °F 24.8 °F 47% 30.04 in 10.0 mi SSE 21.9 mph 27.6 mph N/A   Clear
1:35 AM 43.7 °F 35.4 °F 24.6 °F 47% 30.03 in 10.0 mi SE 19.6 mph 32.2 mph N/A   Clear
1:55 AM 44.2 °F 35.9 °F 24.3 °F 45% 30.02 in 10.0 mi SSE 20.7 mph 27.6 mph N/A   Clear
2:15 AM 44.6 °F 35.9 °F 24.1 °F 44% 30.02 in 10.0 mi SE 23.0 mph 29.9 mph N/A   Clear
2:35 AM 45.0 °F 36.9 °F 24.3 °F 44% 30.02 in 10.0 mi SSE 20.7 mph 28.8 mph N/A   Clear
2:55 AM 45.0 °F 37.1 °F 24.6 °F 45% 30.01 in 10.0 mi SSE 19.6 mph 24.2 mph N/A   Clear
3:15 AM 45.0 °F 37.1 °F 24.4 °F 45% 30.00 in 10.0 mi SSE 19.6 mph 27.6 mph N/A   Clear
3:35 AM 45.0 °F 37.6 °F 24.8 °F 45% 30.00 in 10.0 mi SSE 17.3 mph 26.5 mph N/A   Clear
3:55 AM 45.3 °F 38.4 °F 24.6 °F 44% 29.99 in 10.0 mi SSE 16.1 mph 26.5 mph N/A   Clear
4:15 AM 45.1 °F 37.6 °F 24.8 °F 45% 29.99 in 10.0 mi SSE 18.4 mph 24.2 mph N/A   Clear
4:35 AM 45.0 °F 38.2 °F 25.0 °F 46% 29.99 in 10.0 mi SSE 15.0 mph 23.0 mph N/A   Clear
4:55 AM 45.0 °F 37.6 °F 25.2 °F 46% 29.99 in 10.0 mi SSE 17.3 mph 26.5 mph N/A   Clear
5:15 AM 44.8 °F 37.7 °F 25.2 °F 46% 29.99 in 10.0 mi SSE 16.1 mph 23.0 mph N/A   Clear
5:35 AM 44.8 °F 38.3 °F 25.2 °F 46% 29.99 in 10.0 mi SSE 13.8 mph 21.9 mph N/A   Clear
5:55 AM 44.8 °F 38.3 °F 25.2 °F 46% 29.99 in 10.0 mi SE 13.8 mph 21.9 mph N/A   Clear
6:15 AM 44.6 °F 38.1 °F 25.5 °F 47% 29.98 in 10.0 mi SE 13.8 mph 19.6 mph N/A   Clear
6:35 AM 44.6 °F 37.2 °F 25.5 °F 47% 29.98 in 10.0 mi SSE 17.3 mph 24.2 mph N/A   Clear
6:55 AM 44.4 °F 36.9 °F 25.7 °F 48% 29.97 in 10.0 mi SSE 17.3 mph 24.2 mph N/A   Clear
7:15 AM 44.4 °F 37.2 °F 25.9 °F 48% 29.97 in 10.0 mi SSE 16.1 mph 24.2 mph N/A   Clear
7:35 AM 44.8 °F 37.1 °F 26.4 °F 49% 29.97 in 10.0 mi SSE 18.4 mph 27.6 mph N/A   Clear
7:55 AM 45.7 °F 38.6 °F 26.6 °F 47% 29.97 in 10.0 mi SSE 17.3 mph 23.0 mph N/A   Clear
8:15 AM 46.6 °F - 26.8 °F 46% 29.98 in 10.0 mi SSE 17.3 mph 25.3 mph N/A   Clear
8:35 AM 47.1 °F - 27.3 °F 46% 29.97 in 10.0 mi SSE 21.9 mph 26.5 mph N/A   Clear
8:55 AM 48.7 °F - 28.2 °F 45% 29.97 in 10.0 mi SSE 20.7 mph 24.2 mph N/A   Clear
9:15 AM 50.4 °F - 28.9 °F 44% 29.97 in 10.0 mi SSE 19.6 mph 28.8 mph N/A   Clear
9:35 AM 51.6 °F - 29.8 °F 43% 29.96 in 10.0 mi South 19.6 mph 32.2 mph N/A   Clear
9:55 AM 52.9 °F - 30.4 °F 42% 29.96 in 10.0 mi South 17.3 mph 31.1 mph N/A   Clear
10:15 AM 54.0 °F - 31.1 °F 42% 29.96 in 10.0 mi South 18.4 mph 28.8 mph N/A   Clear
10:35 AM 55.4 °F - 31.8 °F 41% 29.94 in 10.0 mi South 21.9 mph 28.8 mph N/A   Clear
10:55 AM 56.1 °F - 32.2 °F 40% 29.94 in 10.0 mi South 16.1 mph 31.1 mph N/A   Clear
11:15 AM 56.8 °F - 32.2 °F 39% 29.94 in 10.0 mi South 21.9 mph 29.9 mph N/A   Clear
11:35 AM 58.3 °F - 33.1 °F 39% 29.93 in 10.0 mi South 15.0 mph 25.3 mph N/A   Clear
11:55 AM 59.0 °F - 33.3 °F 38% 29.92 in 10.0 mi South 19.6 mph 31.1 mph N/A   Clear
12:15 PM 59.7 °F - 34.0 °F 38% 29.90 in 10.0 mi South 19.6 mph 28.8 mph N/A   Clear
12:35 PM 60.1 °F - 34.3 °F 38% 29.89 in 10.0 mi South 23.0 mph 29.9 mph N/A   Clear
12:55 PM 61.0 °F - 34.9 °F 38% 29.88 in 10.0 mi South 17.3 mph 25.3 mph N/A   Clear
1:15 PM 61.3 °F - 34.7 °F 37% 29.87 in 10.0 mi SSE 17.3 mph 26.5 mph N/A   Clear
1:35 PM 61.9 °F - 35.2 °F 37% 29.86 in 10.0 mi South 20.7 mph 27.6 mph N/A   Clear
1:55 PM 62.1 °F - 35.6 °F 37% 29.86 in 10.0 mi South 17.3 mph 26.5 mph N/A   Clear
2:15 PM 62.6 °F - 35.8 °F 37% 29.85 in 10.0 mi South 20.7 mph 29.9 mph N/A   Clear
2:35 PM 63.5 °F - 36.5 °F 37% 29.84 in 10.0 mi South 16.1 mph 25.3 mph N/A   Clear
2:55 PM 63.9 °F - 36.7 °F 37% 29.85 in 10.0 mi South 18.4 mph 26.5 mph N/A   Clear
3:15 PM 64.4 °F - 37.4 °F 37% 29.84 in 10.0 mi SSE 17.3 mph 25.3 mph N/A   Clear
3:35 PM 64.0 °F - 37.8 °F 38% 29.84 in 10.0 mi South 16.1 mph 23.0 mph N/A   Clear
3:55 PM 63.5 °F - 38.3 °F 39% 29.84 in 10.0 mi South 17.3 mph 23.0 mph N/A   Clear
4:15 PM 63.0 °F - 38.8 °F 41% 29.84 in 10.0 mi South 12.7 mph 18.4 mph N/A   Clear
4:35 PM 63.0 °F - 39.2 °F 42% 29.84 in 10.0 mi South 11.5 mph 17.3 mph N/A   Clear
4:55 PM 63.0 °F - 39.6 °F 42% 29.84 in 10.0 mi South 12.7 mph 20.7 mph N/A   Clear
5:15 PM 62.1 °F - 39.6 °F 44% 29.85 in 10.0 mi South 15.0 mph 20.7 mph N/A   Clear
5:35 PM 61.0 °F - 40.1 °F 46% 29.86 in 10.0 mi South 12.7 mph 19.6 mph N/A   Clear
5:55 PM 59.9 °F - 40.3 °F 48% 29.86 in 10.0 mi South 10.4 mph 18.4 mph N/A   Clear
6:15 PM 59.4 °F - 40.5 °F 50% 29.86 in 10.0 mi South 10.4 mph 18.4 mph N/A   Clear
6:35 PM 58.8 °F - 41.0 °F 52% 29.87 in 10.0 mi South 10.4 mph 16.1 mph N/A   Clear
6:55 PM 58.5 °F - 41.2 °F 53% 29.87 in 10.0 mi SSE 10.4 mph - N/A   Clear
7:15 PM 57.9 °F - 41.4 °F 54% 29.86 in 10.0 mi SSE 10.4 mph - N/A   Clear
7:35 PM 57.6 °F - 41.4 °F 55% 29.86 in 10.0 mi SSE 11.5 mph - N/A   Clear
7:55 PM 57.6 °F - 41.5 °F 55% 29.86 in 10.0 mi SSE 12.7 mph 18.4 mph N/A   Clear
8:15 PM 57.2 °F - 41.5 °F 56% 29.86 in 10.0 mi SSE 15.0 mph 19.6 mph N/A   Clear
8:35 PM 56.5 °F - 41.5 °F 57% 29.86 in 10.0 mi SSE 13.8 mph 18.4 mph N/A   Clear
8:55 PM 55.9 °F - 41.9 °F 59% 29.86 in 10.0 mi SSE 13.8 mph 20.7 mph N/A   Clear
9:15 PM 55.0 °F - 41.7 °F 61% 29.85 in 10.0 mi SSE 15.0 mph - N/A   Clear
9:35 PM 54.0 °F - 41.5 °F 63% 29.86 in 10.0 mi SSE 13.8 mph 18.4 mph N/A   Clear
9:55 PM 54.0 °F - 41.5 °F 63% 29.86 in 10.0 mi SSE 16.1 mph 20.7 mph N/A   Clear
10:15 PM 54.0 °F - 41.9 °F 64% 29.86 in 10.0 mi SSE 13.8 mph - N/A   Clear
10:35 PM 53.8 °F - 42.1 °F 65% 29.86 in 10.0 mi SSE 11.5 mph - N/A   Clear
10:55 PM 53.1 °F - 42.3 °F 67% 29.86 in 10.0 mi SE 10.4 mph - N/A   Clear